This demonstration page uses our WeatherBlox Daily Observations layout. Learn more.

Left ArrowRight Arrow

34.74481, -87.66753

Hourly Observations for January 3, 2020

Temp ( °F °C ) Dew Point ( °F °C ) Humidity (%) Winds ( mph kmh ) Pressure ( in mb ) Visibility ( mi km ) Precip ( " mm )
12:06 am 00:06 Cloudy 55 12.8 53 11.7 93 93 Calm 29.76 1008 10 16 0.00 0.00
12:53 am 00:53 Cloudy 54 12.2 52 11.1 93 93 E 3 6 29.74 1007 9 14 0.00 0.00
1:02 am 01:02 Cloudy 54 12.2 53 11.7 97 97 Calm 29.77 1008 10 16 0.00 0.00
1:45 am 01:45 Cloudy with Light Rain 54 12.2 52 11.1 93 93 W 7 11 29.81 1010 6 10 0.06 1.52
1:53 am 01:53 Cloudy with Rain 54 12.2 53 11.7 97 97 Calm 29.80 1009 5 8 0.07 1.78
2:28 am 02:28 Cloudy with Light Rain 55 12.8 53 11.7 93 93 Calm 29.81 1010 6 10 0.01 0.25
2:53 am 02:53 Cloudy with Light Rain 55 12.8 53 11.7 93 93 Calm 29.80 1009 4 6 0.02 0.51
3:05 am 03:05 Cloudy with Light Rain 55 12.8 53 11.7 93 93 Calm 29.81 1010 3 4 0.02 0.51
3:26 am 03:26 Cloudy with Light Rain 55 12.8 53 11.7 93 93 N 5 7 29.81 1010 5 8 0.02 0.51
3:53 am 03:53 Cloudy with Light Rain 55 12.8 53 11.7 93 93 Calm 29.80 1009 3 5 0.04 1.02
4:02 am 04:02 Cloudy with Light Rain 55 12.8 53 11.7 93 93 E 3 6 29.79 1009 3 4 0.00 0.00
4:14 am 04:14 Cloudy with Light Rain 55 12.8 54 12.2 96 96 Calm 29.82 1010 3 4 0.01 0.25
4:21 am 04:21 Cloudy with Mist and Fog 55 12.8 54 12.2 96 96 Calm 29.82 1010 5 8 0.01 0.25
4:49 am 04:49 Cloudy with Light Rain 55 13 54 12 94 94 SSE 3 6 29.83 1010 4 6 0.02 0.51
4:53 am 04:53 Cloudy with Light Rain 55 12.8 54 12.2 96 96 Calm 29.80 1009 4 6 0.02 0.51
5:05 am 05:05 Cloudy with Light Rain 55 12.8 54 12.2 96 96 SSE 6 9 29.80 1009 2 3 0.01 0.25
5:14 am 05:14 Cloudy with Mist and Fog 55 12.8 54 12.2 96 96 SSE 5 7 29.81 1010 4 6 0.01 0.25
5:53 am 05:53 Cloudy with Mist and Fog 56 13.3 54 12.2 93 93 ESE 3 6 29.81 1010 5 8 0.01 0.25
6:12 am 06:12 Cloudy with Rain 56 13.3 54 12.2 93 93 E 3 6 29.80 1009 3 5 0.02 0.51
6:53 am 06:53 Mostly Cloudy with Light Rain 56 13.3 54 12.2 93 93 ESE 8 13 29.80 1009 4 6 0.07 1.78
7:14 am 07:14 Mostly Cloudy with Light Rain 56 13.3 54 12.2 93 93 SE 6 9 29.82 1010 4 6 0.01 0.25
7:50 am 07:50 Cloudy with Mist and Fog 55 13 55 13 100 100 SE 7 11 29.81 1010 6 10 0.02 0.51
7:53 am 07:53 Cloudy with Light Rain 56 13.3 55 12.8 97 97 SE 7 11 29.80 1009 4 6 0.02 0.51
8:53 am 08:53 Cloudy with Light Rain 57 13.9 55 12.8 93 93 E 6 9 29.82 1010 6 10 0.02 0.51
9:05 am 09:05 Cloudy 58 14.4 57 13.9 97 97 Calm 29.85 1011 10 16 0.00 0.00
9:40 am 09:40 Cloudy 59 15 56 13.3 90 90 Calm 29.84 1010 10 16 0.01 0.25
9:53 am 09:53 Cloudy 59 15 56 13.3 90 90 Calm 29.84 1010 9 14 0.01 0.25
10:24 am 10:24 Cloudy 59 15 58 14.4 96 96 ESE 3 6 29.81 1009 10 16 0.00 0.00
10:45 am 10:45 Cloudy 60 15.6 58 14.4 93 93 Calm 29.81 1009 10 16 0.00 0.00
10:53 am 10:53 Cloudy 60 15.6 58 14.4 93 93 ESE 3 6 29.79 1009 10 16 0.00 0.00
11:53 am 11:53 Cloudy 61 16.1 58 14.4 90 90 SE 3 6 29.75 1008 10 16 0.00 0.00
12:37 pm 12:37 Cloudy 62 16.7 58 14.4 86 86 SSW 8 13 29.79 1009 10 16 0.00 0.00
12:53 pm 12:53 Cloudy 62 16.7 58 14.4 86 86 SSW 7 11 29.79 1009 10 16 0.00 0.00
1:14 pm 13:14 Cloudy 62 16.7 58 14.4 86 86 S 7 11 29.77 1008 10 16 0.00 0.00
1:53 pm 13:53 Cloudy 62 16.7 58 14.4 86 86 SSW 9 15 29.80 1009 10 16 0.00 0.00
2:14 pm 14:14 Cloudy with Light Rain 62 16.7 58 14.4 86 86 W 13 20 29.81 1010 8 13 0.00 0.00
2:29 pm 14:29 Cloudy with Light Rain 60 15.6 57 13.9 90 90 WSW 12 19 29.81 1009 3 5 0.01 0.25
2:53 pm 14:53 Cloudy 60 15.6 57 13.9 90 90 WSW 10 17 29.83 1010 10 16 0.01 0.25
3:24 pm 15:24 Cloudy 60 15.6 56 13.3 86 86 SW 7 11 29.81 1009 10 16 0.00 0.00
3:46 pm 15:46 Cloudy 60 15.6 57 13.9 90 90 W 7 11 29.81 1009 10 16 0.00 0.00
3:53 pm 15:53 Cloudy 60 15.6 57 13.9 90 90 WNW 7 11 29.80 1009 10 16 0.00 0.00
4:11 pm 16:11 Mostly Cloudy 60 15.6 57 13.9 90 90 WSW 7 11 29.82 1010 10 16 0.00 0.00
4:53 pm 16:53 Mostly Cloudy 59 15 56 13.3 90 90 WSW 8 13 29.83 1010 10 16 0.00 0.00
5:22 pm 17:22 Cloudy 60 15.6 56 13.3 86 86 SW 8 13 29.84 1010 10 16 0.00 0.00
5:40 pm 17:40 Cloudy 59 15 56 13.3 90 90 SW 8 13 29.85 1011 10 16 0.00 0.00
5:53 pm 17:53 Cloudy 60 15.6 56 13.3 86 86 SW 8 13 29.86 1011 10 16 0.00 0.00
6:53 pm 18:53 Cloudy 59 15 56 13.3 90 90 SW 8 13 29.86 1011 7 11 0.00 0.00
7:26 pm 19:26 Partly Cloudy 58 14.4 55 12.8 90 90 SW 6 9 29.88 1012 10 16 0.00 0.00
7:38 pm 19:38 Mostly Cloudy 58 14.4 56 13.3 93 93 WSW 5 7 29.88 1012 10 16 0.00 0.00
7:53 pm 19:53 Cloudy 58 14.4 56 13.3 93 93 SW 5 7 29.87 1012 10 16 0.00 0.00
8:11 pm 20:11 Cloudy 58 14.4 55 12.8 90 90 WSW 6 9 29.89 1012 10 16 0.00 0.00
8:22 pm 20:22 Mostly Cloudy 58 14.4 56 13.3 93 93 WSW 6 9 29.89 1012 10 16 0.00 0.00
8:48 pm 20:48 Cloudy 57 14 55 13 94 94 WSW 5 7 29.90 1013 10 16 0.00 0.00
8:53 pm 20:53 Cloudy 58 14.4 55 12.8 90 90 WSW 6 9 29.89 1012 10 16 0.00 0.00
9:04 pm 21:04 Cloudy 58 14.4 55 12.8 90 90 WSW 7 11 29.90 1012 10 16 0.00 0.00
9:53 pm 21:53 Partly Cloudy 55 12.8 53 11.7 93 93 WSW 6 9 29.89 1012 10 16 0.00 0.00
10:36 pm 22:36 Mostly Cloudy 55 12.8 53 11.7 93 93 SSW 5 7 29.89 1012 10 16 0.00 0.00
10:53 pm 22:53 Mostly Cloudy 56 13.3 54 12.2 93 93 SW 6 9 29.88 1012 10 16 0.00 0.00
11:53 pm 23:53 Cloudy 57 13.9 54 12.2 90 90 SW 6 9 29.87 1012 10 16 0.00 0.00

Powered by AerisWeather